Погода в Динане

Франция     48°27′16″N   2°02′54″W
темп.,
°C
ветер,
м/с
пор.,
м/с
влажн.,
%
обл.,
%
осадки,
мм/ч
давл.,
гПа
погр.,
м
27 июня, пн
пн2723:00+12юз35725 0.0 101679
02:00+9юз35912 0.0 101666
05:00+9зюз349499 0.0 101667
08:00+12юз36800 0.0 1017219
11:00+18юз565027 0.0 10181522
14:00+18зюз566194 0.5 10191236
17:00+16ссз3573100 0.3 1020330
20:00+16ссз3466100 0.3 1021452
28 июня, вт
вт2823:00+13ссз1180100 0.0 102217
02:00+13ююв117933 0.0 102219
05:00+9юз22934 0.0 102130
08:00+12ю35823 0.0 1021156
11:00+18ююз56520 0.0 10201377
14:00+22ююз77362 0.0 10181884
17:00+23ююз7835100 0.0 10161919
20:00+19ююз674852 0.0 10161284
29 июня, ср
ср2923:00+13ююз410759 0.0 1016246
02:00+11ю41096100 0.0 1015224
05:00+14ю51192100 0.4 1014491
08:00+14юз369144 2.2 1014343
11:00+18юз5658100 0.0 10141246
14:00+22юз6741100 0.0 10122324
17:00+20юз7846100 0.0 10121807
20:00+17зюз696518 0.4 1011556
30 июня, чт
чт3023:00+12зюз389398 1.8 1012162
02:00+10юз379495 1.8 1012132
05:00+9юз349625 0.0 101276
08:00+11зюз35905 0.0 1013179
11:00+16з455942 0.1 10131326
14:00+20з4736100 0.6 10132668
17:00+17сз5655100 0.1 1015823
20:00+16сз46635 0.2 1016691
1 июля, пт
пт123:00+11сз34884 0.1 101858
02:00+9зюз33920 0.1 101945
05:00+8юз23920 0.0 101932
08:00+11юз23831 0.0 1020115
11:00+17зюз33505 0.0 10211118
14:00+21з243816 0.0 10212071
17:00+21с644715 0.0 10211187
20:00+17ссз566294 0.0 1022501